星链-32450 (STARLINK-32450)

导读

STARLINK-32450是美国SpaceX公司星链(Starlink)星座的一员,于2024年11月14日发射。星链项目旨在通过近地轨道卫星星座,为全球偏远、欠发达等区域提供高速低成本宽带互联网服务,同时拓展航空、航海等移动互联网接入场景。该卫星属于星链第二代组网部署的组成部分,运行在近地轨道,将和其他星链卫星共同推进星座覆盖,提升全球卫星互联网服务能力。

基本信息
目录编号:
61969
目录名称:
STARLINK-32450
国际标识:
2024-210L
轨道中心:
EARTH
卫星名称:
星链-32450
卫星全名:
星链-32450 (STARLINK-32450)
卫星状态:
在轨 (已飞行666 天)
发射日期:
2024-11-14 UTC
国别 :
美国 (US)
星等 :
--
该卫星已列入 空间交会检测服务 Space Conjunction Data Service (SCDS) ,当前飞行风险评估等级: 高风险
轨道信息
数据来源 国际轨道数据 AOE轨道数据
星历时间 2026-09-11T14:21:44+0800
10小时前
查看轨道信息
2026-09-10T23:00:00+0800
1天前
查看轨道信息
半长轴 6861.137km 6861.217km
偏心率 0.0001598 0.0001472
轨道倾角 43.003° 43.002°
近地点辐角 266.182° 281.396°
升交点赤经 204.672° 208.296°
平近点角 93.885° 154.440°
近地点 481.903km 482.07km
远地点 484.097km 484.09km
周期 94.266分钟 94.267分钟
每日圈数 15.275965 15.275699
详细信息
固有亮度:
5
最大亮度:
2.5
卫星平台:
Starlink V1.0
覆盖范围:
全球
运营商:
太空探索技术公司
运营商所在国:
美国
制造商(研发单位):
太空探索技术公司
制造商所在国:
美国
使用方式:
暂无
卫星简介
Starlink 计划是 SpaceX 推出的全球卫星互联网项目,通过发射低轨道卫星,为全球尤其是偏远地区提供高速、低延迟的互联网服务。自 2019 年起,Starlink 已部署数千颗卫星,旨在缩小全球数字鸿沟,推动互联网普及。该项目还为军事、航空等行业提供通信支持,带来广泛经济效益。
2D轨道图
3D轨道图
轨道高度分析图
轨道倾角分析图
轨道综合分析图
查看轨道综合分析图
与全量物体交会距离演化趋势
与全量物体交会风险概率演化趋势